Tracking 17996 objects as of 28-February-2017
HD Live streaming from Space Station
objects crossing your sky now

SL-8 R/B

Track SL-8 R/B now!
10-day predictions


NORAD ID: 24306
Int'l Code: 1996-052C
Perigee: 970.4 km
Apogee: 1,007.8 km
Inclination: 82.9 °
Period: 104.7 minutes
Semi major axis: 7360 km
RCS: 5.014 m2 (large)
Launch date: September 5, 1996
Source: Commonwealth of Independent States (former USSR) (CIS)
Launch site: PLESETSK MISSILE AND SPACE COMPLEX (PKMTR)

Note: This is a ROCKET BODY
Your satellite tracking list
Your tracking list is empty





NASA's NSSDC Master Catalog

Two Line Element Set (TLE):
1 24306U 96052C   17058.60958646 -.00000066  00000-0 -85179-4 0  9990
2 24306  82.9317  61.7605 0025378 328.1513  31.8107 13.74921087 27629
Source of the keplerian elements: AFSPC